Hulianwang W. Digui 15-05

operational
NORAD ID: 66957 Int'l Des: 2025-287 Owner: ZXW Country: CN Constellation: xingwang
LEOCIRCULARPOLAR

About Hulianwang W. Digui 15-05

Description loading...

Live Position

Loading 3D Globe...

Upcoming Passes

Altitude History

Altitude vs Time

uPlot chart will show altitude changes over time

Two-Line Element Set

1 66957U 25287E 25346.69967332 -.00000151 00000-0 -19373-3 0 9997
2 66957 86.4945 346.1700 0007219 190.5502 169.5507 13.69137019 523
Epoch: Dec 12, 2025 • Age: 35 hours

Current Status

Altitude 1026.1 km
Velocity 7.34 km/s
Sub-Earth Point -53.22°S, 156.28°W
Launch Date Dec 8, 2025
Age 6 days
Type other

Technical Details

Classification Payload
Mass 800.00 kg
Dry Mass 800.00 kg
Total Mass 800.00 kg
Length 3.00 m
Diameter 1.00 m
Span 10.00 m
Shape Box + 2 Pan
Manufacturer SECM
Bus Type Guowang S
Phase Status In Orbit
Owner/State ZXW/CN

Large Constellations

Loading constellations...